Pasco, WA
on Sunday, December 16, 2012

Sunday
Previous Day Next Day
Daily Summary
 ActualAverageRecord
Temperature
Mean Temperature °F 32°F  
Max Temperature 50°F 39°F 61°F (1999)
Min Temperature 32°F 26°F -6°F (2008)
Degree Days
Heating Degree Days 24 32  
Month to date heating degree days 372 495  
Since 1 July heating degree days 1469 1724  
Cooling Degree Days 0 0  
Month to date cooling degree days 0 0  
Year to date cooling degree days 788 710  
Moisture
Dew Point 33°F   
Average Humidity 69    
Maximum Humidity 89    
Minimum Humidity 49    
Precipitation
Precipitation 0.09 in 0.04 in 0.29 in (1972)
Month to date precipitation 0.53 0.50  
Year to date precipitation 9.09 8.12  
Snow
Snow 0.00 in in in ()
Snow Depth 0.00 in   
Wind
Wind Speed 9 mph   
Max Wind Speed 29 mph   
Max Gust Speed 37 mph   
Visibility 10 miles   
Events Rain , Snow   

Key: T is trace of precipitation, MM is missing value
Source: NWS Daily Summary
Time(PST)TemperatureDew PointHumidity Pressure Visibility Wind DirectionWind SpeedGust SpeedPrecipitationEvents Conditions
12:53 AM 33.1°F 30.0°F 89% 29.74 in 10.0 miles NNW 4.6 mph - N/A   Partly Cloudy
1:53 AM 33.1°F 28.9°F 85% 29.76 in 10.0 miles WSW 3.5 mph - N/A   Partly Cloudy
2:53 AM 35.1°F 30.0°F 82% 29.78 in 9.0 miles South 9.2 mph - 0.00 in Snow Light Snow
3:53 AM 34.0°F 28.9°F 82% 29.79 in 10.0 miles WSW 3.5 mph - 0.00 in   Partly Cloudy
4:53 AM 37.9°F 30.0°F 73% 29.79 in 9.0 miles West 10.4 mph - 0.00 in Snow Light Snow
5:53 AM 37.9°F 30.9°F 76% 29.80 in 10.0 miles WSW 9.2 mph - 0.00 in   Mostly Cloudy
6:53 AM 39.0°F 30.0°F 70% 29.80 in 10.0 miles SW 12.7 mph - N/A   Overcast
7:53 AM 39.9°F 28.9°F 65% 29.80 in 10.0 miles SSW 11.5 mph - N/A   Overcast
8:53 AM 42.1°F 28.0°F 58% 29.80 in 10.0 miles SSW 15.0 mph - N/A   Overcast
9:53 AM 41.0°F 30.0°F 65% 29.80 in 10.0 miles SW 5.8 mph - 0.00 in   Overcast
10:53 AM 42.1°F 30.9°F 65% 29.78 in 10.0 miles SSW 6.9 mph - N/A   Overcast
11:53 AM 43.0°F 30.9°F 62% 29.76 in 10.0 miles South 3.5 mph - N/A   Overcast
12:53 PM 46.0°F 28.9°F 51% 29.72 in 10.0 miles SSE 6.9 mph - N/A   Partly Cloudy
1:53 PM 46.0°F 30.9°F 56% 29.69 in 10.0 miles South 9.2 mph - N/A   Overcast
2:53 PM 44.1°F 34.0°F 68% 29.65 in 10.0 miles SSE 10.4 mph - N/A   Overcast
3:53 PM 44.1°F 35.1°F 71% 29.61 in 10.0 miles SE 11.5 mph - N/A   Overcast
4:53 PM 43.0°F 36.0°F 76% 29.52 in 10.0 miles ESE 15.0 mph - 0.00 in   Overcast
5:53 PM 42.1°F 36.0°F 79% 29.48 in 10.0 miles SE 15.0 mph - 0.01 in   Overcast
6:53 PM 41.0°F 36.0°F 82% 29.38 in 10.0 miles ESE 16.1 mph - 0.04 in Rain Light Rain
7:53 PM 42.1°F 36.0°F 79% 29.30 in 10.0 miles ESE 17.3 mph - 0.03 in   Overcast
8:53 PM 42.1°F 37.9°F 85% 29.22 in 10.0 miles ESE 10.4 mph - 0.01 in   Overcast
9:53 PM 46.9°F 37.9°F 71% 29.20 in 10.0 miles SE 17.3 mph - N/A   Overcast
10:53 PM 48.9°F 37.9°F 66% 29.20 in 10.0 miles SW 8.1 mph - N/A   Scattered Clouds
11:53 PM 46.9°F 39.0°F 74% 29.21 in 10.0 miles SSW 21.9 mph 27.6 mph N/A   Clear
Moon Phase
Dec. 16 Dec. 20 Dec. 28 Jan. 04 Jan. 11
Sunrise:07:33 AM (PST) Moon Rise:09:59 AM (PST)12/16
Sunset:04:11 PM (PST) Moon Set:08:43 PM (PST)12/16

Copyright © 2014 The Weather Underground, Inc.